DW4844 Weather Reports


time (UTC)temp
C
wind
direction
speed
KPH
gust
KPH
rain 1hr
cm
rain 24hr
cm
rain mn
cm
humidity
%
barometer
mb
20260506180217 7 0.0 0.0 0.00 0.00 0.00 62 1014.2
20260506175217 7 0.0 0.0 0.00 0.00 0.00 62 1014.2
20260506174217 7 0.0 0.0 0.00 0.00 0.00 62 1014.2
20260506173217 7 0.0 0.0 0.00 0.00 0.00 62 1014.0
20260506172217 7 0.0 0.0 0.00 0.00 0.00 62 1014.0
20260506171217 7 0.0 0.0 0.00 0.00 0.00 62 1014.0
20260506170217 7 0.0 0.0 0.00 0.00 0.00 61 1014.0
20260506165217 7 0.0 0.0 0.00 0.00 0.00 57 1014.0
20260506164217 7 0.0 0.0 0.00 0.00 0.00 58 1013.9
20260506163237 7 0.0 0.0 0.00 0.00 0.00 58 1013.9
20260506162217 7 0.0 0.0 0.00 0.00 0.00 58 1013.8
20260506161217 8 0.0 0.0 0.00 0.00 0.00 57 1013.9
20260506160217 8 0.0 0.0 0.00 0.00 0.00 57 1013.8
20260506155217 8 0.0 0.0 0.00 0.00 0.00 59 1013.9
20260506154217 7 0.0 0.0 0.00 0.00 0.00 59 1013.9
20260506153217 7 0.0 0.0 0.00 0.00 0.00 59 1013.9
20260506152217 7 0.0 0.0 0.00 0.00 0.00 60 1013.9
20260506151237 8 0.0 0.0 0.00 0.00 0.00 60 1013.9
20260506150217 8 0.0 0.0 0.00 0.00 0.00 59 1014.0
20260506145217 7 0.0 0.0 0.00 0.00 0.00 59 1014.0
20260506144217 8 0.0 0.0 0.00 0.00 0.00 57 1014.1
20260506143217 8 0.0 0.0 0.00 0.00 0.00 57 1014.2
20260506142217 8 0.0 0.0 0.00 0.00 0.00 56 1014.0
20260506141217 8 0.0 0.0 0.00 0.00 0.00 55 1014.0
20260506140217 8 0.0 0.0 0.00 0.00 0.00 56 1014.0
20260506135217 8 0.0 0.0 0.00 0.00 0.00 57 1014.1
20260506134217 8 0.0 0.0 0.00 0.00 0.00 58 1014.3
20260506133217 8 0.0 0.0 0.00 0.00 0.00 59 1014.3
20260506132217 8 0.0 0.0 0.00 0.00 0.00 57 1014.2
20260506131217 8 0.0 0.0 0.00 0.00 0.00 57 1014.3
20260506130217 8 0.0 0.0 0.00 0.00 0.00 57 1014.2
20260506125217 7 0.0 0.0 0.00 0.00 0.00 59 1014.2
20260506124237 8 0.0 0.0 0.00 0.00 0.00 58 1014.3
20260506123217 8 0.0 0.0 0.00 0.00 0.00 58 1014.3
20260506122217 8 0.0 0.0 0.00 0.00 0.00 57 1014.3
20260506121337 8 0.0 0.0 0.00 0.00 0.00 59 1014.2
20260506120217 7 0.0 0.0 0.00 0.00 0.00 60 1014.4
20260506115237 7 0.0 0.0 0.00 0.00 0.00 61 1014.4
20260506114217 7 0.0 0.0 0.00 0.00 0.00 62 1014.3
20260506113217 7 0.0 0.0 0.00 0.00 0.00 66 1014.3
20260506112217 7 0.0 0.0 0.00 0.00 0.00 68 1014.4
20260506111237 7 0.0 0.0 0.00 0.00 0.00 69 1014.3
20260506110217 7 0.0 0.0 0.00 0.00 0.00 67 1014.4
20260506105217 8 0.0 0.0 0.00 0.00 0.00 60 1014.2
20260506104217 7 0.0 0.0 0.00 0.00 0.00 63 1014.2
20260506103217 8 0.0 0.0 0.00 0.00 0.00 62 1014.2
20260506102217 8 0.0 0.0 0.00 0.00 0.00 57 1014.1
20260506101217 7 0.0 0.0 0.00 0.00 0.00 60 1014.1
20260506100217 7 0.0 0.0 0.00 0.00 0.00 62 1014.2
20260506095217 7 0.0 0.0 0.00 0.00 0.00 61 1014.3
20260506094217 7 0.0 0.0 0.00 0.00 0.00 61 1014.3
20260506093217 7 0.0 0.0 0.00 0.00 0.00 59 1014.3
20260506092217 7 0.0 0.0 0.00 0.00 0.00 57 1014.3
20260506091217 7 0.0 0.0 0.00 0.00 0.00 58 1014.2
20260506090217 7 0.0 0.0 0.00 0.00 0.00 58 1014.3
20260506085217 7 0.0 0.0 0.00 0.00 0.00 57 1014.3
20260506084257 7 0.0 0.0 0.00 0.00 0.00 60 1014.2
20260506083216 7 0.0 0.0 0.00 0.00 0.00 58 1014.3
20260506082217 7 0.0 0.0 0.00 0.00 0.00 58 1014.2
20260506081217 7 0.0 0.0 0.00 0.00 0.00 60 1014.2
20260506080237 6 0.0 0.0 0.00 0.00 0.00 59 1014.3
20260506073217 6 0.0 0.0 0.00 0.00 0.00 66 1014.2
20260506072217 6 0.0 0.0 0.00 0.00 0.00 66 1014.2
20260506071216 6 0.0 0.0 0.00 0.00 0.00 66 1014.2
20260506070217 6 0.0 0.0 0.00 0.00 0.00 66 1014.3
20260506062217 5 0.0 0.0 0.00 0.00 0.00 70 1014.2
20260506061337 4 0.0 0.0 0.00 0.00 0.00 74 1014.2
20260506060217 3 0.0 0.0 0.00 0.00 0.00 79 1014.3
20260506051257 0 0.0 0.0 0.00 0.00 0.00 93 1014.0
20260506050216 0 0.0 0.0 0.00 0.00 0.00 92 1013.9
20260506044216 0 0.0 0.0 0.00 0.00 0.00 92 1013.8
20260506043217 0 0.0 0.0 0.00 0.00 0.00 92 1013.9
20260506042216 0 0.0 0.0 0.00 0.00 0.00 92 1013.9
20260506041217 0 0.0 0.0 0.00 0.00 0.00 92 1013.9
20260506040217 0 0.0 0.0 0.00 0.00 0.00 92 1013.7
20260506035217 0 0.0 0.0 0.00 0.00 0.00 92 1013.7
20260506034216 0 0.0 0.0 0.00 0.00 0.00 92 1013.7
20260506033217 0 0.0 0.0 0.00 0.00 0.00 92 1013.8
20260506032216 0 0.0 0.0 0.00 0.00 0.00 91 1013.8
20260506031217 0 0.0 0.0 0.00 0.00 0.00 91 1013.7
20260506030217 0 0.0 0.0 0.00 0.00 0.00 92 1013.6
20260506025217 0 0.0 0.0 0.00 0.00 0.00 91 1013.7
20260506024216 0 0.0 0.0 0.00 0.00 0.00 91 1013.8
20260506023216 0 0.0 0.0 0.00 0.00 0.00 90 1013.9
20260506022216 0 0.0 0.0 0.00 0.00 0.00 90 1013.9
20260506021217 0 0.0 0.0 0.00 0.00 0.00 90 1014.0
20260506020217 0 0.0 0.0 0.00 0.00 0.00 90 1014.0
20260506015217 0 0.0 0.0 0.00 0.00 0.00 90 1014.1
20260506014217 0 0.0 0.0 0.00 0.00 0.00 90 1014.0
20260506013217 0 0.0 0.0 0.00 0.00 0.00 90 1013.9
20260506012216 0 0.0 0.0 0.00 0.00 0.00 89 1013.9
20260506011216 0 0.0 0.0 0.00 0.00 0.00 89 1013.8
20260506010216 0 0.0 0.0 0.00 0.00 0.00 88 1013.9
20260506005217 0 0.0 0.0 0.00 0.00 0.00 88 1013.8
20260506004217 0 0.0 0.0 0.00 0.00 0.00 88 1014.0
20260506003217 0 0.0 0.0 0.00 0.00 0.00 87 1014.0
20260506002216 0 0.0 0.0 0.00 0.00 0.00 87 1014.1
20260506001217 0 0.0 0.0 0.00 0.00 0.00 87 1013.9
20260506000219 1 0.0 0.0 0.00 0.00 0.00 87 1013.9
20260505235257 1 0.0 0.0 0.00 0.00 0.00 87 1013.9
20260505234216 1 0.0 0.0 0.00 0.00 0.00 87 1013.9
20260505233217 1 0.0 0.0 0.00 0.00 0.00 86 1013.9
20260505232237 1 0.0 0.0 0.00 0.00 0.00 87 1013.8
20260505231217 1 0.0 0.0 0.00 0.00 0.00 86 1013.9
20260505230217 1 0.0 0.0 0.00 0.00 0.00 86 1013.9
20260505225216 1 0.0 0.0 0.00 0.00 0.00 85 1013.9
20260505224217 1 0.0 0.0 0.00 0.00 0.00 84 1013.9
20260505223216 1 0.0 0.0 0.00 0.00 0.00 83 1013.9
20260505222216 1 0.0 0.0 0.00 0.00 0.00 82 1014.0
20260505221216 2 0.0 0.0 0.00 0.00 0.00 81 1013.9
20260505220217 2 0.0 0.0 0.00 0.00 0.00 81 1013.9
20260505215216 2 0.0 0.0 0.00 0.00 0.00 80 1013.9
20260505214217 2 0.0 0.0 0.00 0.00 0.00 80 1013.9
20260505213217 2 0.0 0.0 0.00 0.00 0.00 79 1013.9
20260505212217 2 0.0 0.0 0.00 0.00 0.00 78 1014.0
20260505211237 3 0.0 0.0 0.00 0.00 0.00 78 1014.0
20260505210216 3 0.0 0.0 0.00 0.00 0.00 77 1013.8
20260505205217 3 0.0 0.0 0.00 0.00 0.00 76 1013.9
20260505204216 3 0.0 0.0 0.00 0.00 0.00 76 1013.9
20260505203217 3 0.0 0.0 0.00 0.00 0.00 75 1013.8
20260505202217 3 0.0 0.0 0.00 0.00 0.00 75 1013.8
20260505201216 3 0.0 0.0 0.00 0.00 0.00 75 1013.8
20260505200257 4 0.0 0.0 0.00 0.00 0.00 75 1013.8
20260505195217 4 0.0 0.0 0.00 0.00 0.00 75 1013.7
20260505194217 4 0.0 0.0 0.00 0.00 0.00 76 1013.6
20260505193216 4 0.0 0.0 0.00 0.00 0.00 76 1013.7
20260505192217 5 0.0 0.0 0.00 0.00 0.00 75 1013.7
20260505191216 5 0.0 0.0 0.00 0.00 0.00 73 1013.6
20260505190217 5 0.0 0.0 0.00 0.00 0.00 72 1013.6
20260505185216 6 0.0 0.0 0.00 0.00 0.00 70 1013.4
20260505184216 6 0.0 0.0 0.00 0.00 0.00 68 1013.4
20260505183217 6 0.0 0.0 0.00 0.00 0.00 67 1013.3
20260505182217 6 0.0 0.0 0.00 0.00 0.00 66 1013.2
20260505181216 6 0.0 0.0 0.00 0.00 0.00 65 1013.2